Regional Weather Roundup
Issued by NWS

Home | Current Version | Previous Version | Graphics & Text | Print | Product List | Glossary On
Versions: 1 2 3 4 5 6 7 8 9 10 11 12 13 14 15 16 17 18 19 20 21 22 23 24 25 26 27 28 29 30 31 32 33 34 35 36 37 38 39 40 41 42 43 44 45 46 47 48 49 50
000
ASUS43 KLOT 170203
RWRIL

ILLINOIS REGIONAL WEATHER ROUNDUP
NATIONAL WEATHER SERVICE CHICAGO/ROMEOVILLE IL
800 PM CST TUE JAN 16 2018

NOTE: "FAIR" INDICATES FEW OR NO CLOUDS BELOW 12,000 FEET WITH NO
SIGNIFICANT WEATHER AND/OR OBSTRUCTIONS TO VISIBILITY.

* THESE STATIONS ARE NOT UNDER NWS QUALITY CONTROL. THEY ALSO MAY NOT
  REPORT WEATHER SUCH AS PRECIPITATION OR FOG.

ILZ001-002-007-009-015-016-024-170300-
NORTHWEST ILLINOIS

CITY           SKY/WX    TMP DP  RH WIND       PRES   REMARKS
MOLINE         FAIR       9   3  77 W10       30.63R WCI  -5
$$

ILZ003-004-008-010-011-017-018-170300-
NORTH CENTRAL ILLINOIS

CITY           SKY/WX    TMP DP  RH WIND       PRES   REMARKS
ROCKFORD       FAIR      11   5  77 NW9       30.57S WCI  -2
ROCHELLE*      FAIR       9   5  84 NW8       30.56S WCI  -3
DE KALB*       FAIR      11   7  83 W12       30.54R WCI  -3
PERU*          FAIR      10   6  83 W9        30.59S WCI  -3
$$

ILZ005-006-012>014-019>023-170300-
NORTHEAST ILLINOIS

CITY           SKY/WX    TMP DP  RH WIND       PRES   REMARKS
CHICAGO-OHARE  FAIR      17   9  70 NW14      30.52R WCI   3
CHICAGO-MIDWAY FAIR      18  10  71 NW8       30.52R WCI   8
AURORA         FAIR       8   4  83 W8        30.55R WCI  -4
LANSING*       FAIR      17  11  79 W6        30.52S WCI   8
JOLIET*        FAIR      13   8  81 W6        30.55S WCI   4
WAUKEGAN       FAIR      16   8  71 W5        30.51R WCI   9
DUPAGE AIRPORT FAIR      12   7  80 W9        30.53R WCI   0
KANKAKEE*      FAIR       8   4  84 W12       30.56S WCI  -7
WHEELING       FAIR      17  10  74 NW9       30.54R WCI   6
MORRIS*        FAIR       8   3  82 W10       30.56R WCI  -7
ROMEOVILLE*    FAIR      11   7  84 NW7       30.54S WCI   0
NORTHERLY ISL    N/A     20  10  65 W12         N/A  WCI   8
$$

LMZ740>746-170300-
SOUTHERN LAKE MICHIGAN

STATION/POSITION SKY/WX   TEMP    WIND        PRES    VSBY  WAVE
                          AIR SEA DIR/SP/G                  HT/PER
                          (F)     (DEG/KT/KT) (MB)    (MI)  (FT/S)
HARRISON CRIB              21     310/ 18/ 20   N/A
BURNHAM HARBOR             20     290/  9/ 15   N/A
CALUMET HARBOR             20     280/  8/ 14 1032.4R
BURNS HARBOR               24     300/ 21/ 24 1032.2S
MICHIGAN CITY                     200/  4/  5   N/A
$$

ILZ025>027-034>036-040-047-049-050-058-095>099-170300-
WEST-CENTRAL ILLINOIS

CITY           SKY/WX    TMP DP  RH WIND       PRES   REMARKS
QUINCY         CLEAR      5  -1  76 W7        30.66R WCI  -7
MACOMB*        CLEAR      3  -1  83 W10       30.67S WCI -12
JACKSONVILLE*  FLURRIES   5   0  79 W7        30.67S WCI  -7
PITTSFIELD*    CLEAR      8   2  76 W5        30.68S WCI  -1
$$

ILZ028>032-037-038-041>044-048-051>054-059>061-170300-
CENTRAL ILLINOIS

CITY           SKY/WX    TMP DP  RH WIND       PRES   REMARKS
PONTIAC        FAIR      10   8  91 W13       30.59R WCI  -6
BLOOMINGTON    FAIR       6   3  87 W14       30.58S WCI -11
DECATUR        MOCLDY     8   5  87 W12       30.62R WCI  -7
PEORIA         FAIR       7   2  80 W7        30.63S WCI  -5
LACON*         FAIR       8   3  82 W3        30.61S
LINCOLN*       FAIR       9   5  82 W5        30.64R WCI   1
SPRINGFIELD    CLOUDY    10   3  73 W10       30.65F WCI  -4
TAYLORVILLE    CLOUDY     9   2  75 W9        30.65S WCI  -5
$$

ILZ033-039-045-046-055>057-062-063-170300-
EAST-CENTRAL ILLINOIS

CITY           SKY/WX    TMP DP  RH WIND       PRES   REMARKS
CHAMPAIGN      FAIR       1  -2  87 W10       30.59S WCI -15
DANVILLE*      FLURRIES   5   1  83 SW8       30.56R WCI  -8
RANTOUL*       FAIR       8   4  87 W10       30.58R WCI  -7
MATTOON        CLOUDY     8   4  83 W12       30.61S WCI  -7
PARIS*         LGT SNOW   8   5  86 W10       30.62R WCI  -6
$$

ILZ079-100>102-170300-
SOUTHWEST ILLINOIS

CITY           SKY/WX    TMP DP  RH WIND       PRES   REMARKS
ALTON          CLEAR      7   3  85 W7        30.70R WCI  -5
BELLEVILLE     FLURRIES   9   0  66 W7        30.69S WCI  -3
CAHOKIA*       CLOUDY     8   0  69 NW8       30.72R WCI  -4
SPARTA*        FLURRIES  10   4  77 NW6       30.69S WCI   0
$$

ILZ064>066-069>071-074>076-080>082-084>086-088>090-092>094-170300-
SOUTH-CENTRAL ILLINOIS

CITY           SKY/WX    TMP DP  RH WIND       PRES   REMARKS
CARBONDALE     CLOUDY    11   5  77 NW6       30.69R WCI   1
EFFINGHAM*     LGT SNOW   9   5  82 W7        30.67R WCI  -2
MARION         FLURRIES  10   3  75 CALM      30.69R
MT. VERNON     FLURRIES   9   3  77 CALM      30.68R
CENTRALIA*     CLOUDY    10   5  80 W9        30.67R WCI  -3
SALEM*         CLOUDY    10   3  72 NW9       30.67S WCI  -2
METROPOLIS*    MOCLDY     8   1  72 CALM      30.70S
$$

ILZ067-068-072-073-078-083-087-091-170300-
SOUTHEAST ILLINOIS

CITY           SKY/WX    TMP DP  RH WIND       PRES   REMARKS
LAWRENCEVILLE  CLOUDY     9   3  77 W7        30.66S WCI  -2
FLORA*         LGT SNOW  10   4  75 W10       30.67S WCI  -3
HARRISBURG*    FLURRIES   7   2  82 CALM      30.69S
ROBINSON*      CLOUDY     7   2  79 W9        30.66F WCI  -6
CARMI*         FLURRIES   8   3  79 W8        30.67R WCI  -4
$$

ABBREVIATIONS USED IN REMARKS
   TC - TEMPERATURE IN CELSIUS
  WCI - WIND CHILL INDEX
   HX - HEAT INDEX
  VSB - VISIBILITY
$$





USA.gov is the U.S. government's official web portal to all federal, state and local government web resources and services.